Location: Narrabri
(30.3170°S, 149.7830°E)
Time: 09:16:33
(UTC+10:00)

Tiangong 1 - Visible Passes

Search period start: 18 August 2017 00:00
Search period end: 28 August 2017 00:00
Orbit: 313 x 338 km, 42.8° (Epoch: 17 August)

Date Brightness Start Highest point End Pass type
(mag) Time Alt. Az. Time Alt. Az. Time Alt. Az.
18 Aug 2.5 04:54:14 32° ESE 04:54:14 32° ESE 04:55:55 10° ESE visible
19 Aug 2.2 05:10:46 28° S 05:10:46 28° S 05:12:41 10° SE visible
20 Aug 2.8 05:27:07 16° SSW 05:27:10 16° SSW 05:29:00 10° SSE visible
27 Aug 3.5 05:49:12 10° SSW 05:50:42 13° SSE 05:52:10 10° SE visible
